Flag for Brazil Weather past 2 weeks in Pelotas, Rio Grande do Sul, Brazil

Now
50 °F

Clear.


Feels Like: 46 °F
Forecast: 50 / 61 °F
Wind: 9 mph from East

Location: Porto Alegre Aero-Porto

Current Time: Jul 6, 2015 at 2:22:02 AM

Latest Report: Jul 6, 2015 at 2:00 AM


Visibility: 10 mi

Pressure: 30.12 "Hg

Humidity: 94%

Dew point: 48 °F

Location of PelotasLocation

Historic Weather in Pelotas — Graph

°F

Pelotas temperature yesterday

Maximum temperature yesterday: 64 °F (at 2:00 PM)
Minimum temperature yesterday: 45 °F (at 6:00 AM)
Average temperature yesterday: 54 °F

Past Weeks' High & Low Weather Summary

 TemperatureHumidityPressure
High75 °F (Jun 27, 3:00 PM)100% (Jun 26, 7:00 AM)30.48 "Hg (Jun 26, 7:00 AM)
Low45 °F (Jun 24, 2:00 AM)41% (Jun 27, 4:00 PM)29.74 "Hg (Jul 3, 3:00 PM)
Average59 °F79%30.17 "Hg
* Reported Jun 21 1:00 AM — Jul 6 1:00 AM, Pelotas, Weather by CustomWeather, © 2015

Note: Actual official high and low records may vary slightly from our data, if they occured in-between our weather recording intervals... More about our weather records

Advertising

Pelotas weather history for previous 24 hours

 ConditionsComfort  
Time TempWeatherWind HumidityBarometerVisibility
1:00 AM
Mon, Jul 6
50 °FClear.7 mph88%30.15 "Hg10 mi
12:00 AM52 °FClear.8 mph82%30.15 "Hg10 mi
11:00 PM
Sun, Jul 5
54 °FClear.9 mph82%30.15 "Hg10 mi
10:00 PM54 °FClear.8 mph88%30.12 "Hg10 mi
9:00 PM55 °FClear.9 mph82%30.12 "Hg10 mi
8:00 PM55 °FClear.13 mph82%30.09 "Hg10 mi
7:00 PM57 °FClear.16 mph72%30.12 "Hg10 mi
6:00 PM59 °FClear.10 mph68%30.12 "Hg10 mi
5:00 PM63 °FClear.14 mph64%30.12 "Hg10 mi
4:00 PM63 °FSunny.17 mph64%30.12 "Hg10 mi
3:00 PM64 °FPassing clouds.12 mph56%30.15 "HgN/A
2:00 PM64 °FSunny.8 mph56%30.18 "Hg10 mi
1:00 PM61 °FPassing clouds.9 mph55%30.21 "HgN/A
12:00 PM59 °FPassing clouds.5 mph59%30.24 "HgN/A
11:00 AM57 °FSunny.2 mph59%30.27 "Hg10 mi
10:00 AM55 °FSunny.1 mph63%30.27 "Hg10 mi
9:00 AM50 °FSunny.1 mph88%30.27 "Hg10 mi
8:00 AM45 °FSunny.2 mph93%30.27 "Hg10 mi
7:00 AM45 °FSunny.2 mph87%30.27 "Hg10 mi
6:00 AM45 °FPassing clouds.No wind93%30.24 "HgN/A
5:00 AM48 °FPassing clouds.3 mph82%30.24 "HgN/A
4:00 AM50 °FPassing clouds.3 mph82%30.27 "HgN/A
3:00 AM50 °FPassing clouds.3 mph82%30.30 "HgN/A
2:00 AM50 °FPassing clouds.5 mph82%30.30 "HgN/A
Weather by CustomWeather, © 2015

See weather overviewHow to use our weather pages